EW4366 Weather Reports


time (UTC)temp
F
wind
direction
speed
knots
gust
knots
rain 1hr
in
rain 24hr
in
rain mn
in
humidity
%
barometer
mb
20260906103917 67 0.0 0.0 0.01 0.01 0.01 84 1014.0
20260906102917 67 0.0 0.0 0.00 0.00 0.00 84 1013.8
20260906101917 67 0.0 0.0 0.00 0.00 0.00 83 1013.6
20260906100921 67 0.0 0.0 0.00 0.00 0.00 84 1013.5
20260906095941 67 0.0 0.0 0.00 0.00 0.00 83 1013.5
20260906094920 67 0.0 0.0 0.00 0.00 0.00 84 1013.4
20260906093917 67 0.0 0.0 0.00 0.00 0.00 84 1013.4
20260906092917 67 0.0 0.0 0.00 0.00 0.00 84 1013.4
20260906091917 67 0.0 0.0 0.00 0.00 0.00 84 1013.4
20260906090920 67 0.0 0.0 0.00 0.00 0.00 84 1013.3
20260906085917 67 0.0 0.0 0.00 0.00 0.00 84 1013.3
20260906084917 67 0.0 0.0 0.00 0.00 0.00 84 1013.3
20260906083940 67 0.0 0.0 0.00 0.00 0.00 84 1013.2
20260906082916 67 0.0 0.0 0.00 0.00 0.00 84 1013.2
20260906081917 67 0.0 0.0 0.00 0.00 0.00 85 1013.0
20260906080917 66 0.0 0.0 0.00 0.00 0.00 85 1013.0
20260906075917 66 0.0 0.0 0.00 0.00 0.00 85 1013.1
20260906074941 66 0.0 0.0 0.00 0.00 0.00 85 1013.1
20260906073921 66 0.0 0.0 0.00 0.00 0.00 86 1013.1
20260906072916 66 0.0 0.0 0.00 0.00 0.00 86 1013.0
20260906071917 67 0.0 0.0 0.00 0.00 0.00 86 1013.0
20260906070921 67 0.0 0.0 0.00 0.00 0.00 86 1013.1
20260906065921 67 0.0 0.0 0.00 0.00 0.00 86 1013.1
20260906064941 67 0.0 0.0 0.00 0.00 0.00 86 1013.1
20260906063937 67 0.0 0.0 0.00 0.00 0.00 86 1013.2
20260906062916 67 0.0 0.0 0.00 0.00 0.00 87 1013.3
20260906061940 67 0.0 0.0 0.00 0.00 0.00 87 1013.4
20260906060940 68 0.0 0.0 0.00 0.00 0.00 86 1013.6
20260906055917 68 0.0 0.0 0.00 0.00 0.00 86 1013.4
20260906054920 68 0.0 0.0 0.00 0.00 0.00 87 1013.5
20260906053917 68 0.0 0.0 0.00 0.00 0.00 87 1013.5
20260906052919 68 0.0 0.0 0.00 0.00 0.00 87 1013.4
20260906051944 68 0.0 0.0 0.00 0.00 0.00 87 1013.2
20260906050919 68 0.0 0.0 0.00 0.00 0.00 87 1013.1
20260906045916 69 0.0 0.0 0.00 0.00 0.00 87 1013.3
20260906044939 69 0.0 0.0 0.00 0.00 0.00 88 1013.3
20260906043917 69 0.0 0.0 0.00 0.00 0.00 88 1013.3
20260906042919 69 0.0 0.0 0.00 0.00 0.00 88 1013.5
20260906041916 69 0.0 0.0 0.00 0.00 0.00 88 1013.5
20260906040916 69 0.0 0.0 0.00 0.00 0.00 88 1013.5
20260906035916 70 0.0 0.0 0.00 0.00 0.00 88 1013.5
20260906034921 70 0.0 0.0 0.00 0.00 0.00 88 1013.6
20260906033937 70 0.0 0.0 0.00 0.00 0.00 88 1013.7
20260906032916 70 0.0 0.0 0.00 0.00 0.00 88 1013.6
20260906031940 71 0.0 0.0 0.00 0.00 0.00 87 1013.6
20260906030916 71 0.0 0.0 0.00 0.00 0.00 87 1013.7
20260906025936 72 0.0 0.0 0.00 0.00 0.00 87 1013.6
20260906024920 72 0.0 0.0 0.00 0.00 0.00 87 1013.9
20260906023916 73 0.0 0.0 0.00 0.00 0.00 86 1014.0
20260906022939 73 0.0 0.0 0.00 0.00 0.00 86 1014.1
20260906021916 73 0.0 0.0 0.00 0.00 0.00 86 1013.9
20260906020916 74 0.0 0.0 0.00 0.00 0.00 85 1013.9
20260906015916 74 0.0 0.0 0.00 0.00 0.00 84 1014.0
20260906014937 74 0.0 0.0 0.00 0.00 0.00 84 1013.7
20260906013919 75 0.0 0.0 0.00 0.00 0.00 84 1013.9
20260906012919 75 0.0 0.0 0.00 0.00 0.00 83 1013.8
20260906011916 76 0.0 0.0 0.00 0.00 0.00 81 1013.3
20260906010916 77 0.0 0.0 0.00 0.00 0.00 81 1013.1
20260906005919 77 0.0 0.0 0.00 0.00 0.00 79 1013.2
20260906004919 77 0.0 0.0 0.00 0.00 0.00 79 1013.0
20260906003916 78 0.0 0.0 0.00 0.00 0.00 77 1012.8
20260906002917 78 0.0 0.0 0.00 0.00 0.00 78 1012.7
20260906001919 78 0.0 0.0 0.00 0.00 0.00 77 1012.7
20260906000919 78 0.0 0.0 0.00 0.00 0.00 76 1012.7
20260905235939 79 0.0 0.9 0.00 0.00 0.00 76 1012.6
20260905234936 78 0.0 0.0 0.00 0.00 0.00 75 1012.4
20260905233919 79 0.0 0.0 0.00 0.00 0.00 76 1012.5
20260905232916 80 0.0 0.0 0.00 0.00 0.00 74 1012.5
20260905231916 81 0.0 1.7 0.00 0.00 0.00 73 1012.4
20260905230936 81 0.0 0.0 0.00 0.00 0.00 72 1012.6
20260905225919 81 0.0 0.0 0.00 0.00 0.00 70 1012.5
20260905224919 82 0.0 0.9 0.00 0.00 0.00 71 1012.7
20260905223919 83 0.0 0.0 0.00 0.00 0.00 66 1012.7
20260905222916 83 0.0 0.0 0.00 0.00 0.00 66 1012.6
20260905221916 84 0.0 0.9 0.00 0.00 0.00 62 1012.6
20260905220919 84 0.0 0.0 0.00 0.00 0.00 63 1012.3
20260905215916 85 0.0 0.0 0.00 0.00 0.00 63 1012.3
20260905214916 86 0.0 0.0 0.00 0.00 0.00 63 1012.3
20260905213916 86 0.0 0.0 0.00 0.00 0.00 60 1012.2
20260905212941 86 0.0 0.0 0.00 0.00 0.00 63 1012.2
20260905211916 86 0.0 0.0 0.00 0.00 0.00 62 1012.1
20260905210919 86 0.0 0.0 0.00 0.00 0.00 60 1011.9
20260905205916 86 0.0 0.9 0.00 0.00 0.00 61 1012.0
20260905204919 85 0.0 2.6 0.00 0.00 0.00 64 1012.0
20260905203919 85 203 0.9 1.7 0.00 0.00 0.00 62 1011.9
20260905202919 85 0.0 1.7 0.00 0.00 0.00 63 1011.8
20260905201919 84 0.0 0.0 0.00 0.00 0.00 66 1011.9
20260905200919 84 0.0 0.0 0.00 0.00 0.00 67 1012.0
20260905195936 84 0.0 0.0 0.00 0.00 0.00 69 1011.9
20260905194915 83 0.0 1.7 0.00 0.00 0.00 71 1012.3
20260905193919 83 0.0 0.0 0.00 0.00 0.00 73 1012.3
20260905192916 83 0.0 0.0 0.00 0.00 0.00 74 1012.4
20260905191916 83 0.0 0.0 0.00 0.00 0.00 75 1012.6
20260905190919 82 0.0 0.0 0.00 0.00 0.00 78 1012.6
20260905185915 81 0.0 0.9 0.00 0.00 0.00 79 1012.7
20260905184916 81 0.0 0.0 0.00 0.00 0.00 80 1012.7
20260905183916 80 0.0 0.0 0.00 0.00 0.00 80 1012.9
20260905182919 79 0.0 0.9 0.00 0.00 0.00 81 1013.2
20260905181956 79 0.0 0.0 0.00 0.00 0.00 80 1013.3
20260905180915 79 0.0 0.0 0.00 0.00 0.00 81 1013.7
20260905175916 79 0.0 0.0 0.00 0.00 0.00 80 1013.9
20260905175000 79 0.0 0.0 0.00 0.00 0.00 80 1013.7
20260905173919 79 0.0 6.1 0.00 0.00 0.00 79 1013.5
20260905172916 78 0.0 0.0 0.00 0.00 0.00 82 1013.6
20260905171919 77 0.0 0.0 0.00 0.00 0.00 83 1013.7
20260905170915 77 0.0 0.0 0.00 0.00 0.00 84 1013.4
20260905165915 76 0.0 0.0 0.00 0.00 0.00 84 1013.8
20260905164916 76 0.0 0.0 0.00 0.00 0.00 84 1014.0
20260905163915 76 0.0 0.0 0.00 0.00 0.00 85 1014.4
20260905162915 75 0.0 0.0 0.00 0.00 0.00 85 1014.9
20260905161919 75 0.0 0.0 0.00 0.00 0.00 83 1015.0
20260905160915 76 0.0 0.0 0.00 0.00 0.00 84 1015.2
20260905155939 76 0.0 0.0 0.00 0.00 0.00 82 1015.4
20260905154919 76 0.0 0.0 0.00 0.00 0.00 83 1015.8
20260905153916 75 0.0 0.0 0.00 0.00 0.00 85 1015.9
20260905152918 74 0.0 0.0 0.00 0.00 0.00 86 1016.1
20260905151915 74 0.0 0.0 0.00 0.00 0.00 86 1016.2
20260905150940 74 0.0 0.0 0.00 0.00 0.00 84 1016.2
20260905145918 74 0.0 0.0 0.00 0.00 0.00 83 1015.9
20260905144917 75 270 0.9 5.2 0.00 0.00 0.00 83 1016.3
20260905143921 76 0.0 0.0 0.00 0.00 0.00 83 1016.2
20260905142917 77 23 1.7 5.2 0.00 0.00 0.00 85 1015.6
20260905141918 77 0.0 0.0 0.00 0.00 0.00 85 1014.6
20260905140920 77 0.0 0.0 0.00 0.00 0.00 85 1014.8
20260905135918 76 0.0 0.0 0.00 0.00 0.00 86 1014.7
20260905134921 76 0.0 0.0 0.00 0.00 0.00 86 1014.7
20260905133920 75 0.0 0.0 0.00 0.00 0.00 87 1014.6
20260905132917 73 0.0 0.0 0.00 0.00 0.00 88 1014.5
20260905131920 72 0.0 0.0 0.00 0.00 0.00 88 1014.6
20260905130917 71 0.0 0.0 0.00 0.00 0.00 87 1014.5
20260905125917 69 0.0 0.0 0.00 0.00 0.00 85 1014.6
20260905124917 69 0.0 0.9 0.00 0.00 0.00 82 1014.7
20260905123917 68 0.0 0.0 0.00 0.00 0.00 82 1014.7
20260905122917 67 0.0 0.0 0.00 0.00 0.00 82 1014.6
20260905121917 67 0.0 0.0 0.00 0.00 0.00 82 1014.6
20260905120917 66 0.0 0.0 0.00 0.00 0.00 82 1014.4
20260905115917 66 0.0 0.0 0.00 0.00 0.00 83 1014.3
20260905114940 66 0.0 0.0 0.00 0.00 0.00 83 1014.6
20260905113917 66 0.0 0.0 0.00 0.00 0.00 84 1014.6
20260905112917 65 0.0 0.0 0.00 0.00 0.00 84 1014.3
20260905111940 65 0.0 0.0 0.00 0.00 0.00 84 1014.3
20260905110918 65 0.0 0.0 0.00 0.00 0.00 84 1014.4
20260905105920 65 0.0 0.0 0.00 0.00 0.00 84 1014.4
20260905104940 66 0.0 0.0 0.00 0.00 0.00 85 1014.5